{"data":{"norad_id":64413,"epoch":"2026-05-24T23:26:09.305376Z","epoch_age_seconds":70158,"freshness":"FRESH","line1":"1 64413U 25129B   26144.97649659  .00002898  00000+0  25041-3 0  9990","line2":"2 64413  70.0003 242.1345 0003616 269.0133  91.0612 14.98349831 52715","mean_motion":14.98349831,"eccentricity":0.0003616,"inclination_deg":70.0003,"raan_deg":242.1345,"arg_perigee_deg":269.0133,"mean_anomaly_deg":91.0612,"bstar":0.00025041,"rev_number":5271,"period_min":96.105727127752,"perigee_km":569.48139831494,"apogee_km":574.50773346339,"semimajor_km":6950.1315658892,"source":"CELESTRAK","updated_at":"2026-05-25T13:38:20.416660Z"}}